Hourly Weather Kizlyar

Today, 8 May, Saturday

Time Temperature Precipitation Wind Pressure Humidity
00:00 +12°C° 0 mm 2 mps 764 mmHg 90%
01:00 +12°C° 0 mm 2 mps 764 mmHg 89%
02:00 +10°C° 0 mm 2 mps 764 mmHg 89%
03:00 +10°C° 0 mm 2 mps 764 mmHg 89%
04:00 +12°C° 0 mm 2 mps 764 mmHg 87%
05:00 +13°C° 0 mm 2 mps 764 mmHg 85%
06:00 +13°C° 0 mm 2 mps 764 mmHg 82%
07:00 +16°C° 0 mm 3 mps 763 mmHg 72%
08:00 +19°C° 0 mm 4 mps 763 mmHg 62%
09:00 +21°C° 0 mm 5 mps 763 mmHg 51%
10:00 +22°C° 0 mm 5 mps 762 mmHg 48%
11:00 +23°C° 0 mm 6 mps 762 mmHg 44%
12:00 +24°C° 0 mm 7 mps 762 mmHg 41%
13:00 +23°C° 0 mm 7 mps 761 mmHg 42%
14:00 +23°C° 0 mm 8 mps 761 mmHg 42%
15:00 +22°C° 0 mm 8 mps 760 mmHg 43%
16:00 +20°C° 0 mm 8 mps 760 mmHg 47%
17:00 +18°C° 0 mm 7 mps 760 mmHg 51%
18:00 +16°C° 0 mm 7 mps 760 mmHg 55%
19:00 +15°C° 0 mm 6 mps 760 mmHg 57%
20:00 +15°C° 0 mm 6 mps 760 mmHg 59%
21:00 +14°C° 0 mm 6 mps 760 mmHg 61%
22:00 +14°C° 0 mm 6 mps 759 mmHg 66%
23:00 +14°C° 0 mm 6 mps 759 mmHg 71%

Tomorrow, 9 May, Sunday

Time Temperature Precipitation Wind Pressure Humidity
00:00 +14°C° 0 mm 6 mps 759 mmHg 76%
01:00 +13°C° 0 mm 5 mps 758 mmHg 81%
02:00 +13°C° 0 mm 5 mps 758 mmHg 86%
03:00 +13°C° 0 mm 5 mps 757 mmHg 91%
04:00 +13°C° 0 mm 5 mps 757 mmHg 90%
05:00 +13°C° 0 mm 5 mps 757 mmHg 90%
06:00 +14°C° 0 mm 5 mps 757 mmHg 89%
07:00 +15°C° 0 mm 4 mps 757 mmHg 83%
08:00 +18°C° 0 mm 4 mps 756 mmHg 76%
09:00 +19°C° 0 mm 4 mps 756 mmHg 69%
10:00 +21°C° 0 mm 4 mps 756 mmHg 64%
11:00 +22°C° 0 mm 3 mps 756 mmHg 60%
12:00 +25°C° 0 mm 3 mps 755 mmHg 55%
13:00 +25°C° 0 mm 3 mps 755 mmHg 55%
14:00 +25°C° 0 mm 3 mps 755 mmHg 55%
15:00 +25°C° 0 mm 3 mps 754 mmHg 54%
16:00 +23°C° 0 mm 4 mps 754 mmHg 58%
17:00 +22°C° 0 mm 4 mps 755 mmHg 62%
18:00 +21°C° 0 mm 4 mps 755 mmHg 65%
19:00 +17°C° 0 mm 6 mps 757 mmHg 67%
20:00 +15°C° 0 mm 9 mps 759 mmHg 68%
21:00 +10°C° 0 mm 12 mps 761 mmHg 69%
22:00 +9°C° 0.2 mm 11 mps 762 mmHg 73%
23:00 +8°C° 0.2 mm 11 mps 762 mmHg 77%

Day after tomorrow, 10 May, Monday

Time Temperature Precipitation Wind Pressure Humidity
00:00 +8°C° 0.2 mm 11 mps 763 mmHg 81%
01:00 +8°C° 0.2 mm 10 mps 763 mmHg 81%
02:00 +7°C° 0.2 mm 10 mps 764 mmHg 81%
03:00 +7°C° 0.2 mm 10 mps 764 mmHg 81%
04:00 +8°C° 0 mm 9 mps 764 mmHg 79%
05:00 +8°C° 0 mm 9 mps 764 mmHg 77%
06:00 +8°C° 0 mm 9 mps 764 mmHg 75%
07:00 +8°C° 0.1 mm 9 mps 764 mmHg 70%
08:00 +10°C° 0.1 mm 9 mps 764 mmHg 65%
09:00 +11°C° 0.1 mm 9 mps 764 mmHg 60%
10:00 +12°C° 0.1 mm 8 mps 764 mmHg 54%
11:00 +14°C° 0.1 mm 7 mps 764 mmHg 49%
12:00 +15°C° 0.1 mm 6 mps 765 mmHg 44%
13:00 +16°C° 0 mm 5 mps 764 mmHg 39%
14:00 +17°C° 0 mm 5 mps 764 mmHg 35%
15:00 +19°C° 0 mm 4 mps 763 mmHg 30%
16:00 +19°C° 0 mm 4 mps 763 mmHg 34%
17:00 +18°C° 0 mm 3 mps 763 mmHg 38%
18:00 +17°C° 0 mm 3 mps 763 mmHg 42%
19:00 +16°C° 0 mm 3 mps 764 mmHg 44%
20:00 +15°C° 0 mm 2 mps 764 mmHg 45%
21:00 +14°C° 0 mm 2 mps 765 mmHg 47%
22:00 +13°C° 0 mm 2 mps 765 mmHg 49%
23:00 +13°C° 0 mm 2 mps 765 mmHg 51%

11 May, Tuesday

Time Temperature Precipitation Wind Pressure Humidity
00:00 +13°C° 0 mm 2 mps 765 mmHg 54%
01:00 +12°C° 0 mm 2 mps 765 mmHg 57%
02:00 +10°C° 0 mm 3 mps 764 mmHg 61%
03:00 +9°C° 0 mm 3 mps 764 mmHg 64%
04:00 +9°C° 0 mm 3 mps 764 mmHg 65%
05:00 +10°C° 0 mm 2 mps 765 mmHg 66%
06:00 +10°C° 0 mm 2 mps 765 mmHg 66%
07:00 +12°C° 0 mm 3 mps 765 mmHg 61%
08:00 +14°C° 0 mm 4 mps 764 mmHg 56%
09:00 +17°C° 0 mm 4 mps 764 mmHg 51%
10:00 +17°C° 0 mm 5 mps 764 mmHg 47%
11:00 +19°C° 0 mm 6 mps 763 mmHg 44%
12:00 +18°C° 0 mm 7 mps 763 mmHg 40%
13:00 +18°C° 0 mm 7 mps 763 mmHg 41%
14:00 +18°C° 0 mm 7 mps 763 mmHg 41%
15:00 +18°C° 0 mm 7 mps 763 mmHg 42%
16:00 +17°C° 0 mm 7 mps 763 mmHg 47%
17:00 +16°C° 0 mm 6 mps 763 mmHg 52%
18:00 +15°C° 0 mm 5 mps 764 mmHg 58%
19:00 +14°C° 0 mm 4 mps 764 mmHg 65%
20:00 +12°C° 0 mm 3 mps 764 mmHg 72%
21:00 +11°C° 0 mm 3 mps 764 mmHg 79%
22:00 +10°C° 0 mm 3 mps 764 mmHg 82%
23:00 +10°C° 0 mm 2 mps 764 mmHg 84%

12 May, Wednesday

Time Temperature Precipitation Wind Pressure Humidity
00:00 +10°C° 0 mm 2 mps 764 mmHg 87%
01:00 +9°C° 0 mm 2 mps 763 mmHg 87%
02:00 +9°C° 0 mm 2 mps 763 mmHg 88%
03:00 +9°C° 0 mm 2 mps 763 mmHg 89%
04:00 +10°C° 0 mm 2 mps 763 mmHg 85%
05:00 +12°C° 0 mm 2 mps 763 mmHg 82%
06:00 +12°C° 0 mm 2 mps 763 mmHg 78%
07:00 +13°C° 0 mm 3 mps 763 mmHg 68%
08:00 +16°C° 0 mm 3 mps 763 mmHg 58%
09:00 +19°C° 0 mm 4 mps 763 mmHg 48%
10:00 +20°C° 0 mm 4 mps 762 mmHg 46%
11:00 +21°C° 0 mm 5 mps 762 mmHg 43%
12:00 +22°C° 0 mm 5 mps 762 mmHg 40%
13:00 +21°C° 0 mm 5 mps 762 mmHg 41%
14:00 +21°C° 0 mm 5 mps 761 mmHg 42%
15:00 +21°C° 0 mm 5 mps 761 mmHg 44%
16:00 +20°C° 0 mm 5 mps 761 mmHg 49%
17:00 +19°C° 0 mm 4 mps 761 mmHg 54%
18:00 +18°C° 0 mm 4 mps 761 mmHg 60%
19:00 +15°C° 0 mm 4 mps 761 mmHg 67%
20:00 +13°C° 0 mm 3 mps 761 mmHg 75%
21:00 +12°C° 0 mm 3 mps 761 mmHg 82%
22:00 +12°C° 0 mm 2 mps 761 mmHg 84%
23:00 +12°C° 0 mm 2 mps 761 mmHg 86%

13 May, Thursday

Time Temperature Precipitation Wind Pressure Humidity
00:00 +12°C° 0 mm 1 mps 761 mmHg 88%
01:00 +12°C° 0 mm 1 mps 761 mmHg 89%
02:00 +11°C° 0 mm 1 mps 761 mmHg 90%
03:00 +11°C° 0 mm 1 mps 760 mmHg 90%
04:00 +11°C° 0 mm 0 mps 761 mmHg 88%
05:00 +12°C° 0 mm 0 mps 761 mmHg 85%
06:00 +13°C° 0 mm 0 mps 761 mmHg 82%
07:00 +14°C° 0 mm 0 mps 761 mmHg 75%
08:00 +18°C° 0 mm 1 mps 761 mmHg 68%
09:00 +20°C° 0 mm 1 mps 761 mmHg 60%
10:00 +21°C° 0 mm 2 mps 761 mmHg 56%
11:00 +23°C° 0 mm 2 mps 761 mmHg 51%
12:00 +25°C° 0 mm 3 mps 760 mmHg 46%
13:00 +25°C° 0 mm 3 mps 760 mmHg 46%
14:00 +26°C° 0 mm 4 mps 760 mmHg 45%
15:00 +26°C° 0 mm 4 mps 760 mmHg 45%
16:00 +25°C° 0 mm 4 mps 760 mmHg 50%
17:00 +22°C° 0 mm 4 mps 761 mmHg 56%
18:00 +21°C° 0 mm 4 mps 761 mmHg 61%
19:00 +19°C° 0 mm 4 mps 761 mmHg 69%
20:00 +17°C° 0 mm 3 mps 761 mmHg 77%
21:00 +14°C° 0 mm 3 mps 762 mmHg 85%
22:00 +14°C° 0 mm 3 mps 761 mmHg 87%
23:00 +14°C° 0 mm 3 mps 761 mmHg 88%
Show more

We Need Your Consent

Meteoprog and our Service Providers may store and access personal data such as cookies, device identifiers or other similar technologies on your device and process such data to personalise content and ads, as well as provide social media features and to analyse the traffic.

  • Store and/or access information on your device

    Cookies, device identifiers or other information can be stored or accessed on your device for the purposes indicated above.

  • Personalised ads and content, ad and content measurement, audience insights, and products development

    Ads and content can be personalised based on a profile. More data can be added to better personalise ads and content. Ad and content performance can be measured. Insights about the audience who saw the ads and content can be derived. Such data can be used to develop or improve user’s experience, systems and software.

By clicking ‘I Agree’ you will allow the use of indicated cookies, device identifiers, web beacons or other similar technologies. Your settings can be changed in the browser on your device.

For certain purposes, legitimate interests may be relied on, rather than consent. You can read more about this in our Privacy and Cookie Policy.